User: anonymous   Login
Location: Unspecified
(0.0000°N, 0.0000°E)
Time: 17:26:56
(UTC+01:00)
Language:

Centaur AC-64 - Orbit

View from above orbital plane
View from above orbital plane
View from above satellite
View from above satellite

Ground track
Ground track

The orbit data is extracted from the following two-line orbital elements,

1 15874U 85055B   17080.29039981 +.00000800 +00000-0 +25411-3 0  9999
2 15874 022.9669 142.9354 6578675 110.4403 328.1519 03.19051567327655
Epoch (UTC): 21 March 2017 06:58:10
Eccentricity: 0.6578675
inclination: 22.9669°
perigee height: 290 km
apogee height: 25934 km
right ascension of ascending node: 142.9354°
argument of perigee: 110.4403°
revolutions per day: 3.19051567
mean anomaly at epoch: 328.1519°
orbit number at epoch: 32765

The dashed part of the orbit path shows where the satellite is in the earth's shadow,  

DLR